Location: Gunnison Valley Observatory
(38.5087°N, 106.9386°W)
Time: 02:00:06
(UTC-07:00)

Amateur Radio Satellites - All Passes

Search period start: 06 March 2015 01:30
Search period end: 07 March 2015 01:30
Location: Gunnison Valley Observatory, 38.5087°N, 106.9386°W

Satellite Date Start Highest point End Downlink Frequencies (MHz)
Time Altitude Azimuth
Oscar 19 06 Mar 01:34:09 01:39:16 69° 101° (ESE) 01:44:23 437.125/150
STARS 06 Mar 01:34:18 01:37:54 25° 69° (ENE) 01:41:34 437.465
JUGNU 06 Mar 01:35:35 01:37:28 11° 176° (S) 01:39:22 437.505
Gurwin Techsat 1B 06 Mar 01:35:39 01:38:56 17° 90° (E) 01:42:27 435.225
KKS-1 06 Mar 01:35:49 01:40:01 41° 72° (ENE) 01:44:13 437.445
ITAMSAT 1 06 Mar 01:41:17 01:45:31 25° 94° (E) 01:49:50 435.822/435.867
BEESAT 2 06 Mar 01:42:16 01:46:25 70° 241° (WSW) 01:50:28 435.950
SO-50 06 Mar 01:52:15 01:56:08 25° 313° (NW) 02:00:02 436.795
AIST 2 06 Mar 02:00:12 02:04:28 66° 57° (ENE) 02:08:38 435.215
SWISSCUBE 06 Mar 02:19:09 02:21:26 13° 271° (W) 02:23:28 437.505
BEESAT 06 Mar 02:27:45 02:29:26 11° 272° (W) 02:30:49 436.000
YUBILEINY 06 Mar 02:36:02 02:44:41 57° 77° (ENE) 02:53:20 435.215
RS-15 06 Mar 02:46:09 02:53:10 18° 348° (NNW) 03:00:08 29.354- 29.394
AUBIESAT-1 06 Mar 02:50:38 02:52:36 15° 63° (ENE) 02:54:45 437.475
M-CUBED/EXP-1 PRIME 06 Mar 02:51:34 02:53:51 18° 64° (ENE) 02:56:18 437.505
BEESAT 3 06 Mar 02:53:51 02:54:17 10° 251° (WSW) 02:54:28 437.485
STARS 06 Mar 03:10:30 03:14:18 27° 264° (W) 03:18:04 437.465
KKS-1 06 Mar 03:13:52 03:16:52 17° 268° (W) 03:19:43 437.445
Gurwin Techsat 1B 06 Mar 03:14:08 03:19:21 55° 287° (WNW) 03:24:31 435.225
MOZHAYETS 4 06 Mar 03:14:41 03:18:10 22° 69° (ENE) 03:21:46
Oscar 19 06 Mar 03:15:21 03:18:07 14° 296° (WNW) 03:20:38 437.125/150
ITAMSAT 1 06 Mar 03:20:21 03:25:07 36° 290° (WNW) 03:29:49 435.822/435.867
JUGNU 06 Mar 03:24:13 03:25:36 11° 186° (S) 03:26:57 437.505
SRMSAT 06 Mar 03:32:18 03:34:32 12° 178° (S) 03:36:48 437.500
HORYU 2 06 Mar 03:32:42 03:37:09 64° 102° (ESE) 03:41:35 437.375
AIST 2 06 Mar 03:41:36 03:42:34 10° 251° (WSW) 03:43:16 435.215
JAS-2 06 Mar 03:50:13 03:57:15 40° 95° (E) 04:04:33 435.910
PCSat 06 Mar 03:50:25 03:54:12 19° 46° (NE) 03:58:07 145.827
AO-7 06 Mar 04:08:17 04:16:29 62° 103° (ESE) 04:24:40 29.400- 29.500
AUBIESAT-1 06 Mar 04:24:28 04:27:20 26° 259° (W) 04:30:17 437.475
M-CUBED/EXP-1 PRIME 06 Mar 04:26:02 04:28:44 22° 260° (W) 04:31:27 437.505
YUBILEINY 06 Mar 04:33:41 04:41:05 30° 275° (W) 04:48:11 435.215
PRISM 06 Mar 04:34:28 04:35:20 11° 64° (ENE) 04:36:28 437.425
MOZHAYETS 4 06 Mar 04:51:08 04:55:15 33° 264° (W) 04:59:21
RS-15 06 Mar 05:03:19 05:11:24 22° 23° (NNE) 05:20:02 29.354- 29.394
HORYU 2 06 Mar 05:11:34 05:13:21 12° 295° (WNW) 05:14:53 437.375
SRMSAT 06 Mar 05:22:05 05:22:52 10° 188° (S) 05:23:34 437.500
CUBESAT XI-V 06 Mar 05:23:29 05:27:49 39° 72° (ENE) 05:32:14 437.345
STRAND 1 06 Mar 05:24:20 05:28:35 28° 68° (ENE) 05:32:57 437.568
PCSat 06 Mar 05:32:46 05:38:10 65° 245° (WSW) 05:43:30 145.827
JAS-2 06 Mar 05:35:11 05:42:17 44° 291° (WNW) 05:49:32 435.910
Cubesat XI-IV 06 Mar 05:37:30 05:41:50 25° 94° (E) 05:46:16 437.490
CUTE-I 06 Mar 05:45:08 05:49:44 29° 95° (E) 05:54:23 437.470
AO-7 06 Mar 06:01:53 06:08:50 30° 301° (WNW) 06:15:33 29.400- 29.500
ISS 06 Mar 06:05:23 06:05:36 10° 129° (SE) 06:05:59 145.825
PRISM 06 Mar 06:06:16 06:10:22 63° 259° (W) 06:14:31 437.425
AIST 1 06 Mar 06:14:11 06:18:11 37° 92° (E) 06:22:17
GONETS M04 06 Mar 06:51:09 06:55:35 15° 59° (ENE) 07:00:38
CUBESAT XI-V 06 Mar 07:02:02 07:05:28 19° 268° (W) 07:08:46 437.345
STRAND 1 06 Mar 07:03:02 07:07:41 33° 264° (W) 07:12:19 437.568
RS-15 06 Mar 07:15:38 07:26:55 61° 52° (NE) 07:38:46 29.354- 29.394
Cubesat XI-IV 06 Mar 07:17:06 07:22:04 38° 290° (WNW) 07:26:57 437.490
CUTE-I 06 Mar 07:25:02 07:29:50 33° 291° (WNW) 07:34:31 437.470
ISS 06 Mar 07:38:27 07:41:40 72° 322° (NW) 07:44:53 145.825
AIST 1 06 Mar 07:53:10 07:56:05 17° 289° (WNW) 07:58:52
GOMX 1 06 Mar 07:54:09 07:56:21 14° 90° (E) 07:58:43 467.674
CUTE 1.7 + AOD 2 06 Mar 07:54:45 07:56:52 14° 90° (E) 07:59:13 437.475
BRITE-PL 06 Mar 08:08:25 08:12:24 33° 96° (E) 08:16:13 437.365/2234.400
DOVE 4 06 Mar 08:10:02 08:12:14 14° 90° (E) 08:14:35 437.250
O/OREOS (USA 219) 06 Mar 08:16:31 08:20:57 57° 108° (ESE) 08:25:29 437.305
AAUSAT CUBESAT 2 06 Mar 08:23:05 08:25:50 17° 92° (E) 08:28:43 437.432
COMPASS 1 06 Mar 08:28:24 08:31:45 23° 94° (E) 08:35:11 437.405
SO-50 06 Mar 08:44:00 08:48:11 27° 48° (NE) 08:52:25 436.795
Oscar 11 06 Mar 08:45:17 08:47:38 15° 91° (E) 08:50:10 145.826/435.025
GONETS M04 06 Mar 08:45:21 08:54:09 81° 82° (E) 09:02:59
HO-68 06 Mar 08:51:01 08:58:09 64° 102° (ESE) 09:05:17 435.675
SEEDS 06 Mar 09:01:08 09:05:23 71° 101° (E) 09:09:37 437.485
QB50P1 06 Mar 09:02:42 09:02:53 10° 65° (ENE) 09:03:19 145.935-145.965
DELFI C3 06 Mar 09:06:39 09:09:35 19° 93° (E) 09:12:38 145.870
QB50P2 06 Mar 09:06:42 09:08:08 12° 65° (ENE) 09:09:49 145.880/145.840
CANX-2 06 Mar 09:10:54 09:15:08 67° 284° (WNW) 09:19:22 2200.000
DX 1 06 Mar 09:16:38 09:18:57 14° 91° (E) 09:21:27 434.975-435.025
ISS 06 Mar 09:16:45 09:18:35 14° 340° (NNW) 09:20:23 145.825
DUCHIFAT 1 06 Mar 09:17:09 09:19:31 15° 67° (ENE) 09:22:02 145.980
CUBEBUG 2 06 Mar 09:18:15 09:21:39 25° 95° (E) 09:25:09 437.445
CINEMA 3 06 Mar 09:24:11 09:28:16 55° 100° (E) 09:32:21 145.822/145.860
UNISAT 6 06 Mar 09:27:57 09:31:58 37° 72° (ENE) 09:35:57 437.425
RS-15 06 Mar 09:28:38 09:39:02 39° 251° (WSW) 09:49:31 29.354- 29.394
CUTE 1.7 + AOD 2 06 Mar 09:29:02 09:33:06 45° 287° (WNW) 09:37:11 437.475
GOMX 1 06 Mar 09:30:48 09:34:50 40° 287° (WNW) 09:38:43 467.674
FUNcube-1 06 Mar 09:37:21 09:40:52 27° 95° (E) 09:44:29 145.935
POPSAT HIP 1 06 Mar 09:39:17 09:42:51 26° 70° (ENE) 09:46:29 437.405
UKube-1 06 Mar 09:39:58 09:43:33 25° 95° (E) 09:47:11 .
ZACube-1 06 Mar 09:40:03 09:43:41 29° 96° (E) 09:47:23 437.345
AISAT 06 Mar 09:40:11 09:40:38 10° 88° (E) 09:41:24 437.250
POLYITAN 1 06 Mar 09:40:48 09:44:26 28° 71° (ENE) 09:48:07 437.675
DOVE 4 06 Mar 09:46:23 09:50:19 39° 287° (WNW) 09:54:10 437.250
VELOX 1 06 Mar 09:46:35 09:48:18 12° 89° (E) 09:50:15 145.980
BRITE-PL 06 Mar 09:47:36 09:50:44 19° 293° (WNW) 09:53:38 437.365/2234.400
TIGRISAT 06 Mar 09:50:40 09:55:00 66° 76° (ENE) 09:59:16 435.000
AAUSAT CUBESAT 2 06 Mar 09:57:47 10:01:37 35° 288° (WNW) 10:05:26 437.432
O/OREOS (USA 219) 06 Mar 09:58:10 10:00:50 15° 306° (NW) 10:03:21 437.305
NANOSAT C BR1 06 Mar 10:00:14 10:04:19 45° 73° (ENE) 10:08:25 145.865
50 SAT 06 Mar 10:01:35 10:04:11 17° 93° (E) 10:06:55 437.505
COMPASS 1 06 Mar 10:03:53 10:07:27 26° 289° (WNW) 10:10:57 437.405
ANTELSAT 06 Mar 10:06:31 10:10:54 79° 258° (WSW) 10:15:13 437.575/2403.000
UWE-3 06 Mar 10:08:03 10:12:13 81° 102° (ESE) 10:16:26 435.000/436.395/437.385
DANDE 06 Mar 10:08:22 10:10:07 16° 74° (ENE) 10:12:00 436.750
CUSAT 1 06 Mar 10:13:24 10:15:47 30° 78° (ENE) 10:18:23 437.405
ESTCUBE 1 06 Mar 10:17:10 10:19:19 14° 90° (E) 10:21:43 437.505/2401.250
Oscar 11 06 Mar 10:19:57 10:24:06 44° 287° (WNW) 10:28:12 145.826/435.025
BUGSAT 1 06 Mar 10:22:51 10:27:04 62° 75° (ENE) 10:31:19 437.445
SO-50 06 Mar 10:24:17 10:28:52 38° 245° (WSW) 10:33:22 436.795
QB50P1 06 Mar 10:34:00 10:38:16 71° 259° (W) 10:42:33 145.935-145.965
QB50P2 06 Mar 10:39:23 10:43:37 59° 260° (W) 10:47:51 145.880/145.840
HO-68 06 Mar 10:39:46 10:45:23 25° 299° (WNW) 10:50:48 435.675
DELFI C3 06 Mar 10:41:15 10:44:51 30° 288° (WNW) 10:48:24 145.870
GONETS M04 06 Mar 10:44:15 10:50:06 19° 279° (W) 10:55:29
HUMSAT D 06 Mar 10:46:35 10:50:43 87° 283° (WNW) 10:54:52 437.325/437.525
DUCHIFAT 1 06 Mar 10:50:56 10:55:02 45° 261° (W) 10:59:09 145.980
DX 1 06 Mar 10:51:20 10:55:30 45° 287° (WNW) 10:59:38 434.975-435.025
CUBEBUG 2 06 Mar 10:54:56 10:58:20 24° 289° (WNW) 11:01:40 437.445
CUBEBUG 1 06 Mar 11:02:42 11:06:49 38° 97° (E) 11:10:55 437.445
CINEMA 3 06 Mar 11:03:36 11:05:05 11° 294° (WNW) 11:06:21 145.822/145.860
UNISAT 6 06 Mar 11:05:55 11:08:56 18° 268° (W) 11:11:46 437.425
AISAT 06 Mar 11:13:23 11:17:48 65° 286° (WNW) 11:22:09 437.250
FUNcube-1 06 Mar 11:13:51 11:17:09 22° 290° (WNW) 11:20:21 145.935
POPSAT HIP 1 06 Mar 11:15:11 11:18:44 24° 266° (W) 11:22:11 437.405
Oscar 19 06 Mar 11:15:55 11:16:00 10° 61° (ENE) 11:16:23 437.125/150
UKube-1 06 Mar 11:16:02 11:19:40 26° 291° (WNW) 11:23:13 .
ZACube-1 06 Mar 11:16:47 11:19:56 21° 290° (WNW) 11:23:00 437.345
POLYITAN 1 06 Mar 11:16:56 11:20:23 23° 266° (W) 11:23:44 437.675
SPROUT 06 Mar 11:19:57 11:22:12 14° 91° (E) 11:24:36 437.525
VELOX 1 06 Mar 11:20:57 11:25:18 54° 286° (WNW) 11:29:36 145.980
50 SAT 06 Mar 11:35:45 11:39:17 31° 288° (WNW) 11:42:47 437.505
NANOSAT C BR1 06 Mar 11:38:09 11:40:28 14° 269° (W) 11:42:36 145.865
ESTCUBE 1 06 Mar 11:52:09 11:56:36 52° 286° (WNW) 12:01:00 437.505/2401.250
BUGSAT 1 06 Mar 12:02:31 12:03:03 10° 272° (W) 12:03:16 437.445
ISS 06 Mar 12:31:50 12:33:45 15° 20° (NNE) 12:35:42 145.825
CUBEBUG 1 06 Mar 12:39:54 12:42:56 18° 293° (WNW) 12:45:49 437.445
SWISSCUBE 06 Mar 12:41:25 12:44:32 18° 92° (E) 12:47:50 437.505
TISAT 1 06 Mar 12:43:12 12:47:24 67° 285° (WNW) 12:51:33 437.305
BEESAT 06 Mar 12:49:02 12:52:25 19° 92° (E) 12:55:56 436.000
Oscar 19 06 Mar 12:49:31 12:54:39 85° 77° (ENE) 12:59:49 437.125/150
SPROUT 06 Mar 12:54:29 12:58:35 44° 287° (WNW) 13:02:38 437.525
Gurwin Techsat 1B 06 Mar 12:55:10 12:59:19 24° 67° (ENE) 13:03:36 435.225
ITAMSAT 1 06 Mar 12:57:45 13:02:24 34° 69° (ENE) 13:07:07 435.822/435.867
AO-7 06 Mar 13:17:47 13:22:02 16° 51° (NE) 13:26:41 29.400- 29.500
ITUPSAT 1 06 Mar 13:18:18 13:22:48 38° 98° (E) 13:27:18 437.325
YUBILEINY 06 Mar 13:47:02 13:47:51 10° 76° (ENE) 13:49:31 435.215
JAS-2 06 Mar 14:05:32 14:07:17 12° 56° (NE) 14:09:26 435.910
ISS 06 Mar 14:07:23 14:10:38 80° 41° (NE) 14:13:52 145.825
VERMONT LUNAR 06 Mar 14:07:59 14:08:42 11° 144° (SE) 14:09:33 437.305
SWISSCUBE 06 Mar 14:18:05 14:22:41 45° 288° (WNW) 14:27:14 437.505
BEESAT 06 Mar 14:25:58 14:30:29 41° 288° (WNW) 14:34:56 436.000
HORYU 2 06 Mar 14:29:42 14:33:58 49° 73° (ENE) 14:38:15 437.375
Gurwin Techsat 1B 06 Mar 14:34:07 14:39:06 40° 262° (W) 14:44:05 435.225
ITAMSAT 1 06 Mar 14:37:30 14:41:57 27° 265° (W) 14:46:20 435.822/435.867
ITUPSAT 1 06 Mar 14:56:47 15:00:29 22° 293° (WNW) 15:04:02 437.325
STARS 06 Mar 15:01:04 15:05:24 60° 101° (E) 15:09:44 437.465
KKS-1 06 Mar 15:04:39 15:09:06 78° 284° (WNW) 15:13:31 437.445
AO-7 06 Mar 15:05:18 15:13:36 73° 69° (ENE) 15:21:54 29.400- 29.500
BEESAT 3 06 Mar 15:06:16 15:08:52 17° 111° (ESE) 15:11:37 437.485
YUBILEINY 06 Mar 15:34:38 15:43:14 68° 93° (E) 15:51:58 435.215
BEESAT 2 06 Mar 15:35:35 15:39:11 31° 114° (ESE) 15:42:53 435.950
VERMONT LUNAR 06 Mar 15:42:45 15:46:07 49° 157° (SSE) 15:49:30 437.305
JAS-2 06 Mar 15:45:42 15:51:15 81° 76° (ENE) 15:57:35 435.910
AIST 2 06 Mar 15:57:58 16:01:01 20° 112° (ESE) 16:04:13 435.215
AUBIESAT-1 06 Mar 16:06:00 16:09:24 22° 99° (E) 16:13:03 437.475
M-CUBED/EXP-1 PRIME 06 Mar 16:07:34 16:11:14 25° 100° (E) 16:15:10 437.505
HORYU 2 06 Mar 16:08:36 16:10:59 14° 269° (W) 16:13:08 437.375
PHONESAT 2.4 06 Mar 16:17:52 16:21:20 45° 156° (SSE) 16:24:50 2401.200-2431.200
STARS 06 Mar 16:39:34 16:41:26 12° 295° (WNW) 16:43:06 437.465
BEESAT 3 06 Mar 16:42:48 16:46:40 40° 306° (NW) 16:50:36 437.485
MOZHAYETS 4 06 Mar 16:47:06 16:51:44 65° 101° (E) 16:56:21
Cubesat XI-IV 06 Mar 16:57:58 17:02:50 37° 70° (ENE) 17:07:46 437.490
AO-7 06 Mar 17:00:48 17:07:12 23° 268° (W) 17:13:13 29.400- 29.500
CUTE-I 06 Mar 17:05:27 17:10:27 42° 71° (ENE) 17:15:32 437.470
BEESAT 2 06 Mar 17:13:59 17:17:23 24° 311° (NW) 17:20:47 435.950
VERMONT LUNAR 06 Mar 17:20:31 17:23:59 65° 353° (N) 17:27:28 437.305
CUBESAT XI-V 06 Mar 17:24:18 17:25:22 11° 87° (E) 17:26:45 437.345
YUBILEINY 06 Mar 17:33:55 17:40:56 25° 294° (WNW) 17:47:40 435.215
JAS-2 06 Mar 17:35:10 17:37:32 12° 277° (W) 17:39:33 435.910
AIST 2 06 Mar 17:35:26 17:39:25 37° 307° (NW) 17:43:25 435.215
AUBIESAT-1 06 Mar 17:40:14 17:44:18 36° 292° (WNW) 17:48:33 437.475
M-CUBED/EXP-1 PRIME 06 Mar 17:42:13 17:46:08 31° 293° (WNW) 17:50:13 437.505
PRISM 06 Mar 17:51:12 17:54:17 20° 94° (E) 17:57:28 437.425
PHONESAT 2.4 06 Mar 17:56:06 17:59:44 69° 351° (N) 18:03:23 2401.200-2431.200
AIST 1 06 Mar 18:00:02 18:04:27 77° 264° (W) 18:08:48
MOZHAYETS 4 06 Mar 18:26:22 18:28:29 13° 295° (WNW) 18:30:23
O/OREOS (USA 219) 06 Mar 18:27:53 18:32:30 86° 68° (ENE) 18:37:03 437.305
PCSat 06 Mar 18:31:22 18:35:06 20° 107° (ESE) 18:39:03 145.827
Cubesat XI-IV 06 Mar 18:38:31 18:43:02 26° 266° (W) 18:47:29 437.490
CUTE-I 06 Mar 18:46:30 18:50:45 23° 267° (W) 18:54:52 437.470
VERMONT LUNAR 06 Mar 18:58:33 19:02:03 72° 10° (N) 19:05:32 437.305
CUBESAT XI-V 06 Mar 18:58:42 19:03:24 68° 285° (WNW) 19:08:02 437.345
GOMX 1 06 Mar 19:00:12 19:03:43 19° 68° (ENE) 19:07:16 467.674
DOVE 4 06 Mar 19:14:04 19:17:10 17° 68° (ENE) 19:20:21 437.250
STRAND 1 06 Mar 19:14:24 19:19:35 88° 288° (WNW) 19:24:43 437.568
AAUSAT CUBESAT 2 06 Mar 19:15:13 19:15:51 10° 65° (ENE) 19:16:43 437.432
BRITE-PL 06 Mar 19:16:35 19:21:45 41° 73° (ENE) 19:26:44 437.365/2234.400
HO-68 06 Mar 19:18:05 19:24:37 42° 66° (ENE) 19:31:16 435.675
COMPASS 1 06 Mar 19:19:52 19:21:58 14° 67° (ENE) 19:24:16 437.405
PRISM 06 Mar 19:26:05 19:29:52 31° 289° (WNW) 19:33:33 437.425
PHONESAT 2.4 06 Mar 19:34:43 19:38:22 70° 9° (N) 19:42:00 2401.200-2431.200
Oscar 11 06 Mar 19:41:04 19:41:33 10° 65° (ENE) 19:42:18 145.826/435.025
GONETS M04 06 Mar 19:51:59 19:56:56 18° 81° (E) 20:02:25
SEEDS 06 Mar 19:52:04 19:55:57 39° 73° (ENE) 19:59:53 437.485
DELFI C3 06 Mar 19:55:36 19:56:27 11° 66° (ENE) 19:57:32 145.870
CANX-2 06 Mar 20:02:18 20:06:30 72° 77° (ENE) 20:10:42 2200.000
DX 1 06 Mar 20:12:14 20:13:43 12° 64° (ENE) 20:15:26 434.975-435.025
PCSat 06 Mar 20:12:53 20:18:10 52° 302° (WNW) 20:23:29 145.827
CUBEBUG 2 06 Mar 20:15:48 20:18:56 20° 69° (ENE) 20:22:07 437.445
CUTE 1.7 + AOD 2 06 Mar 20:20:13 20:24:25 78° 258° (WSW) 20:28:39 437.475
CINEMA 3 06 Mar 20:24:18 20:28:47 45° 74° (ENE) 20:33:06 145.822/145.860
FUNcube-1 06 Mar 20:32:35 20:35:36 19° 69° (ENE) 20:38:42 145.935
UKube-1 06 Mar 20:34:11 20:37:15 19° 68° (ENE) 20:40:25 .
ZACube-1 06 Mar 20:35:21 20:38:34 21° 70° (ENE) 20:41:50 437.345
GOMX 1 06 Mar 20:36:22 20:41:34 51° 261° (W) 20:46:29 467.674
VERMONT LUNAR 06 Mar 20:36:35 20:39:50 37° 206° (SSW) 20:43:05 437.305
VELOX 1 06 Mar 20:44:33 20:45:21 11° 64° (ENE) 20:46:24 145.980
AAUSAT CUBESAT 2 06 Mar 20:46:56 20:51:02 63° 260° (W) 20:55:09 437.432
DOVE 4 06 Mar 20:49:40 20:54:38 52° 260° (W) 20:59:22 437.250
COMPASS 1 06 Mar 20:53:22 20:57:21 45° 261° (W) 21:01:22 437.405
BRITE-PL 06 Mar 20:55:46 21:00:22 25° 266° (W) 21:04:41 437.365/2234.400
STRAND 1 06 Mar 20:56:54 20:58:06 11° 299° (WNW) 20:58:59 437.568
UWE-3 06 Mar 21:03:46 21:08:03 54° 75° (ENE) 21:12:16 435.000/436.395/437.385
HO-68 06 Mar 21:05:55 21:12:25 36° 264° (W) 21:18:51 435.675
Oscar 11 06 Mar 21:12:58 21:17:14 69° 259° (WSW) 21:21:32 145.826/435.025
PHONESAT 2.4 06 Mar 21:13:17 21:16:45 42° 205° (SSW) 21:20:11 2401.200-2431.200
ESTCUBE 1 06 Mar 21:16:50 21:18:16 12° 64° (ENE) 21:19:56 437.505/2401.250
DELFI C3 06 Mar 21:27:15 21:31:13 57° 260° (W) 21:35:13 145.870
SEEDS 06 Mar 21:29:30 21:32:01 15° 269° (W) 21:34:22 437.485
HUMSAT D 06 Mar 21:37:06 21:41:10 53° 75° (ENE) 21:45:13 437.325/437.525
RS-15 06 Mar 21:38:13 21:48:02 42° 109° (ESE) 21:58:06 29.354- 29.394
GONETS M04 06 Mar 21:44:06 21:52:49 85° 278° (W) 22:01:34
DX 1 06 Mar 21:45:09 21:49:30 63° 259° (WSW) 21:53:53 434.975-435.025
TIGRISAT 06 Mar 21:45:11 21:47:30 15° 91° (E) 21:50:02 435.000
CUBEBUG 2 06 Mar 21:51:22 21:55:28 35° 263° (W) 21:59:26 437.445
CUBEBUG 1 06 Mar 21:57:45 22:01:30 28° 70° (ENE) 22:05:21 437.445
ANTELSAT 06 Mar 22:00:31 22:03:55 23° 94° (E) 22:07:27 437.575/2403.000
CINEMA 3 06 Mar 22:03:12 22:06:13 16° 268° (W) 22:08:58 145.822/145.860
FUNcube-1 06 Mar 22:07:50 22:11:46 33° 263° (W) 22:15:38 145.935
UKube-1 06 Mar 22:09:11 22:13:11 35° 262° (W) 22:17:11 .
AISAT 06 Mar 22:09:36 22:14:07 86° 257° (WSW) 22:18:39 437.250
ZACube-1 06 Mar 22:10:56 22:14:49 30° 264° (W) 22:18:35 437.345
SPROUT 06 Mar 22:15:05 22:15:33 10° 65° (ENE) 22:16:17 437.525
VELOX 1 06 Mar 22:16:54 22:21:23 74° 258° (WSW) 22:25:53 145.980
50 SAT 06 Mar 22:20:23 22:24:20 65° 259° (W) 22:28:16 437.505
QB50P1 06 Mar 22:21:36 22:24:42 20° 93° (E) 22:27:54 145.935-145.965
QB50P2 06 Mar 22:26:54 22:30:18 24° 95° (E) 22:33:46 145.880/145.840
DUCHIFAT 1 06 Mar 22:37:33 22:41:16 30° 96° (E) 22:44:59 145.980
UWE-3 06 Mar 22:43:14 22:44:58 12° 270° (W) 22:46:27 435.000/436.395/437.385
ESTCUBE 1 06 Mar 22:50:07 22:54:38 69° 259° (WSW) 22:59:10 437.505/2401.250
UNISAT 6 06 Mar 22:57:28 23:01:48 79° 285° (WNW) 23:06:11 437.425
POPSAT HIP 1 06 Mar 23:01:07 23:05:17 59° 100° (E) 23:09:26 437.405
POLYITAN 1 06 Mar 23:03:00 23:07:12 64° 101° (E) 23:11:22 437.675
HUMSAT D 06 Mar 23:15:59 23:17:21 11° 271° (W) 23:18:26 437.325/437.525
DANDE 06 Mar 23:16:40 23:23:00 57° 98° (E) 23:27:46 436.750
CUSAT 1 06 Mar 23:19:08 23:25:04 74° 99° (E) 23:29:30 437.405
TIGRISAT 06 Mar 23:20:26 23:24:32 44° 287° (WNW) 23:28:41 435.000
NANOSAT C BR1 06 Mar 23:22:22 23:26:35 76° 285° (WNW) 23:30:46 145.865
TISAT 1 06 Mar 23:33:49 23:38:04 74° 77° (ENE) 23:42:21 437.305
CUBEBUG 1 06 Mar 23:34:12 23:37:53 24° 266° (W) 23:41:30 437.445
ANTELSAT 06 Mar 23:36:59 23:40:45 29° 289° (WNW) 23:44:29 437.575/2403.000
BUGSAT 1 06 Mar 23:42:14 23:46:19 59° 285° (WNW) 23:50:19 437.445
GONETS M04 06 Mar 23:46:03 23:51:16 16° 300° (WNW) 23:55:57
SPROUT 06 Mar 23:46:49 23:51:08 71° 259° (WSW) 23:55:28 437.525
SWISSCUBE 06 Mar 23:47:05 23:50:15 18° 66° (ENE) 23:53:34 437.505
RS-15 06 Mar 23:49:33 00:00:11 54° 311° (NW) 00:10:58 29.354- 29.394
BEESAT 06 Mar 23:54:35 23:57:57 20° 67° (ENE) 00:01:28 436.000
QB50P1 06 Mar 23:56:56 00:00:40 30° 289° (WNW) 00:04:19 145.935-145.965
BEESAT 2 06 Mar 23:57:08 23:59:35 15° 44° (NE) 00:02:08 435.950
QB50P2 07 Mar 00:02:39 00:06:12 26° 290° (WNW) 00:09:40 145.880/145.840
DUCHIFAT 1 07 Mar 00:13:47 00:16:58 21° 291° (WNW) 00:20:01 145.980
AIST 2 07 Mar 00:21:50 00:23:17 12° 40° (NE) 00:24:54 435.215
ITUPSAT 1 07 Mar 00:23:50 00:28:13 38° 71° (ENE) 00:32:41 437.325
SO-50 07 Mar 00:36:53 00:41:29 81° 302° (WNW) 00:46:15 436.795
POPSAT HIP 1 07 Mar 00:39:16 00:40:45 11° 295° (WNW) 00:41:59 437.405
POLYITAN 1 07 Mar 00:41:37 00:42:39 11° 295° (WNW) 00:43:28 437.675
DANDE 07 Mar 01:02:36 01:06:21 16° 286° (WNW) 01:09:19 436.750
Oscar 19 07 Mar 01:02:52 01:07:28 33° 96° (E) 01:12:07 437.125/150
BEESAT 3 07 Mar 01:03:02 01:07:11 77° 58° (ENE) 01:11:15 437.485
CUSAT 1 07 Mar 01:07:09 01:08:00 10° 288° (WNW) 01:08:29 437.405
ITAMSAT 1 07 Mar 01:13:45 01:15:56 13° 89° (E) 01:18:26 435.822/435.867
JUGNU 07 Mar 01:20:29 01:22:27 12° 177° (S) 01:24:26 437.505
